TimeEDT,TemperatureF,Dew PointF,Humidity,Sea Level PressureIn,VisibilityMPH,Wind Direction,Wind SpeedMPH,Gust SpeedMPH,PrecipitationIn,Events,Conditions,WindDirDegrees,DateUTC
12:51 AM,50.0,39.9,68,29.80,10.0,WSW,5.8,-,N/A,,Clear,250,2013-09-23 04:51:00
1:51 AM,48.9,39.9,71,29.81,10.0,Variable,3.5,-,N/A,,Clear,0,2013-09-23 05:51:00
2:51 AM,48.9,39.0,69,29.80,10.0,WNW,10.4,-,N/A,,Clear,290,2013-09-23 06:51:00
3:51 AM,48.9,39.0,69,29.81,10.0,WNW,8.1,-,N/A,,Clear,300,2013-09-23 07:51:00
4:51 AM,48.0,37.9,68,29.82,10.0,Variable,5.8,-,N/A,,Clear,0,2013-09-23 08:51:00
5:51 AM,46.0,37.9,73,29.83,10.0,West,4.6,-,N/A,,Clear,260,2013-09-23 09:51:00
6:51 AM,46.9,37.0,68,29.86,10.0,West,3.5,-,N/A,,Clear,260,2013-09-23 10:51:00
7:51 AM,50.0,37.0,61,29.87,10.0,NW,8.1,-,N/A,,Clear,310,2013-09-23 11:51:00
8:51 AM,52.0,37.9,59,29.87,10.0,NW,16.1,24.2,N/A,,Clear,320,2013-09-23 12:51:00
9:51 AM,54.0,37.9,55,29.88,10.0,WNW,11.5,20.7,N/A,,Clear,300,2013-09-23 13:51:00
10:51 AM,55.9,39.0,53,29.88,10.0,NNW,21.9,29.9,N/A,,Clear,330,2013-09-23 14:51:00
11:51 AM,57.0,39.0,51,29.88,10.0,NW,18.4,25.3,N/A,,Clear,320,2013-09-23 15:51:00
12:51 PM,57.9,39.9,51,29.89,10.0,NW,10.4,16.1,N/A,,Partly Cloudy,310,2013-09-23 16:51:00
1:51 PM,59.0,39.9,49,29.88,10.0,NW,16.1,21.9,N/A,,Clear,320,2013-09-23 17:51:00
2:51 PM,59.0,39.9,49,29.89,10.0,NW,13.8,-,N/A,,Clear,310,2013-09-23 18:51:00
3:51 PM,59.0,39.9,49,29.89,10.0,NNW,16.1,20.7,N/A,,Clear,330,2013-09-23 19:51:00
4:51 PM,57.0,39.0,51,29.90,10.0,NW,16.1,-,N/A,,Clear,320,2013-09-23 20:51:00
5:51 PM,53.1,39.0,59,29.93,10.0,NW,15.0,23.0,N/A,,Clear,310,2013-09-23 21:51:00
6:51 PM,51.1,37.9,61,29.94,10.0,WNW,12.7,-,N/A,,Clear,300,2013-09-23 22:51:00
7:51 PM,48.9,37.9,66,29.96,10.0,NW,8.1,-,N/A,,Clear,310,2013-09-23 23:51:00
8:51 PM,46.0,39.0,76,29.97,10.0,Calm,Calm,-,N/A,,Clear,0,2013-09-24 00:51:00
9:51 PM,46.0,37.9,73,29.97,10.0,Variable,3.5,-,N/A,,Clear,0,2013-09-24 01:51:00
10:51 PM,44.1,37.9,79,29.96,10.0,WNW,5.8,-,N/A,,Clear,290,2013-09-24 02:51:00
11:51 PM,45.0,37.9,76,29.96,10.0,West,4.6,-,N/A,,Clear,260,2013-09-24 03:51:00